This demonstration page uses our WeatherBlox Daily Observations layout. Learn more.

Hourly Observations for March 23, 2018

Temp ( °F °C ) Dew Point ( °F °C ) Humidity (%) Winds ( mph kmh ) Pressure ( in mb ) Visibility ( mi km ) Precip ( " mm )
12:15 am 00:15 Clear 48 9.1 41 5.1 76 76 E 12 19 30.03 1017 10 16.0934 0 0
12:35 am 00:35 Clear 48 8.9 41 5 77 77 E 8 13 30.03 1017 10 16.0934 0 0
12:55 am 00:55 Partly Cloudy 48 8.8 41 5.1 78 78 E 10 17 30.03 1017 10 16.0934 0 0
1:15 am 01:15 Partly Cloudy 48 9.1 42 5.3 77 77 E 8 13 30.03 1017 10 16.0934 0 0
1:35 am 01:35 Partly Cloudy 48 8.8 42 5.3 79 79 ESE 8 13 30.03 1017 10 16.0934 0 0
1:55 am 01:55 Partly Cloudy with Drizzle 47 8.5 42 5.8 83 83 ESE 5 7 30.03 1017 10 16.0934 0 0
2:15 am 02:15 Partly Cloudy 47 8.3 42 5.7 84 84 E 14 22 30 1016 10 16.0934 0 0
2:35 am 02:35 Mostly Cloudy 47 8.6 41 5.2 79 79 E 13 20 30 1016 10 16.0934 0 0
2:55 am 02:55 Partly Cloudy 47 8.3 41 5.1 80 80 ENE 7 11 30.03 1017 10 16.0934 0 0
3:15 am 03:15 Clear 47 8.5 41 5 79 79 ENE 10 17 30 1016 10 16.0934 0 0
3:35 am 03:35 Mostly Cloudy 47 8.1 41 4.8 80 80 E 18 30 29.97 1015 10 16.0934 0 0
3:55 am 03:55 Partly Cloudy 47 8.1 40 4.6 79 79 NE 7 11 30 1016 10 16.0934 0 0
4:15 am 04:15 Partly Cloudy 47 8.1 40 4.5 78 78 E 8 13 29.97 1015 10 16.0934 0 0
4:35 am 04:35 Clear 46 7.7 40 4.3 79 79 E 14 22 29.97 1015 10 16.0934 0 0
4:55 am 04:55 Clear 45 7.4 39 4 79 79 E 15 24 29.97 1015 10 16.0934 0 0
5:15 am 05:15 Clear 45 7 39 4 81 81 E 16 26 29.94 1014 10 16.0934 0 0
5:35 am 05:35 Clear 45 7 39 4 81 81 E 15 24 29.94 1014 10 16.0934 0 0
5:55 am 05:55 Clear 44 6.8 39 3.8 81 81 E 16 26 29.94 1014 10 16.0934 0 0
6:15 am 06:15 Clear 44 6.5 38 3.5 81 81 E 17 28 29.94 1014 10 16.0934 0 0
6:35 am 06:35 Clear 43 6.1 38 3.2 82 82 E 18 30 29.94 1014 10 16.0934 0 0
6:55 am 06:55 Clear 42 5.7 38 3.1 84 84 ESE 17 28 29.94 1014 10 16.0934 0 0
7:15 am 07:15 Clear 41 5.2 37 3 86 86 E 16 26 29.94 1014 10 16.0934 0 0
7:35 am 07:35 Clear 41 5 37 2.9 86 86 E 18 30 29.91 1013 10 16.0934 0 0
7:55 am 07:55 Sunny 41 5 37 2.8 86 86 E 18 30 29.91 1013 10 16.0934 0 0
8:15 am 08:15 Sunny 42 5.3 37 3 85 85 E 17 28 29.91 1013 10 16.0934 0 0
8:35 am 08:35 Sunny 42 5.3 38 3.1 86 86 E 20 31 29.88 1012 10 16.0934 0 0
8:55 am 08:55 Sunny 42 5.5 38 3.2 85 85 E 18 30 29.88 1012 10 16.0934 0 0
9:15 am 09:15 Sunny 42 5.8 38 3.4 85 85 E 18 30 29.88 1012 10 16.0934 0 0
9:35 am 09:35 Sunny 44 6.8 39 3.7 81 81 E 17 28 29.91 1013 10 16.0934 0 0
9:55 am 09:55 Sunny 44 6.8 39 3.7 81 81 E 18 30 29.88 1012 10 16.0934 0 0
10:15 am 10:15 Sunny 46 7.8 39 4.1 78 78 E 17 28 29.85 1011 10 16.0934 0 0
10:35 am 10:35 Sunny 48 9.1 40 4.7 74 74 E 20 31 29.83 1010 10 16.0934 0 0
10:55 am 10:55 Sunny 50 9.9 41 5 72 72 ESE 22 35 29.83 1010 10 16.0934 0 0
11:15 am 11:15 Sunny 52 11 42 5.5 69 69 ESE 22 35 29.8 1009 10 16.0934 0 0
11:35 am 11:35 Partly Cloudy 53 11.4 42 5.7 68 68 ESE 22 35 29.77 1008 10 16.0934 0 0
11:55 am 11:55 Mostly Cloudy 55 12.9 43 6.3 64 64 ESE 23 37 29.77 1008 10 16.0934 0 0
12:15 pm 12:15 Partly Cloudy 56 13.2 44 6.5 64 64 ESE 22 35 29.77 1008 10 16.0934 0 0
12:35 pm 12:35 Partly Cloudy 58 14.4 45 7 61 61 ESE 23 37 29.74 1007 10 16.0934 0 0
12:55 pm 12:55 Sunny 58 14.7 45 7.4 62 62 SE 20 31 29.71 1006 10 16.0934 0 0
1:15 pm 13:15 Partly Cloudy 60 15.5 46 7.8 60 60 SE 18 30 29.71 1006 10 16.0934 0 0
1:35 pm 13:35 Partly Cloudy 61 16.3 47 8.1 59 59 SE 21 33 29.71 1006 10 16.0934 0 0
1:55 pm 13:55 Sunny 63 17.2 48 8.8 58 58 ESE 24 39 29.65 1004 10 16.0934 0 0
2:15 pm 14:15 Sunny 64 17.8 48 9.1 57 57 SE 23 37 29.65 1004 10 16.0934 0 0
2:35 pm 14:35 Sunny 65 18.1 48 9.1 56 56 SE 25 41 29.62 1003 10 16.0934 0 0
2:55 pm 14:55 Sunny 65 18.6 49 9.5 56 56 SE 18 30 29.62 1003 10 16.0934 0 0
3:15 pm 15:15 Partly Cloudy 67 19.5 51 10.4 56 56 SSE 22 35 29.62 1003 10 16.0934 0 0
3:35 pm 15:35 Partly Cloudy 67 19.5 50 10.2 55 55 SE 18 30 29.62 1003 10 16.0934 0 0
3:55 pm 15:55 Mostly Cloudy 69 20.7 52 11 54 54 SE 21 33 29.56 1001 10 16.0934 0 0
4:15 pm 16:15 Mostly Cloudy 69 20.6 52 10.9 54 54 ESE 17 28 29.56 1001 10 16.0934 0 0
4:35 pm 16:35 Partly Cloudy 69 20.4 51 10.8 54 54 SE 20 31 29.56 1001 10 16.0934 0 0
4:55 pm 16:55 Sunny 69 20.8 52 11.2 54 54 ESE 18 30 29.53 1000 10 16.0934 0 0
5:15 pm 17:15 Sunny 70 21.1 53 11.6 55 55 SE 18 30 29.53 1000 10 16.0934 0 0
5:35 pm 17:35 Sunny 71 21.5 54 12 55 55 SE 22 35 29.5 999 10 16.0934 0 0
5:55 pm 17:55 Sunny 69 20.5 53 11.8 58 58 SE 17 28 29.5 999 10 16.0934 0 0
6:15 pm 18:15 Mostly Cloudy 68 19.8 54 12.1 61 61 ESE 10 17 29.53 1000 10 16.0934 0 0
6:35 pm 18:35 Cloudy 66 18.8 55 12.5 67 67 SE 5 7 29.59 1002 10 16.0934 0 0
6:55 pm 18:55 Cloudy with Light Thunderstorms 64 17.7 56 13.2 75 75 ESE 10 17 29.59 1002 10 16.0934 0 0
7:15 pm 19:15 Cloudy with Nearby Thunderstorms 51 10.7 47 8.6 87 87 N 22 35 29.68 1005 4 6.43736 0.09 2.286
7:35 pm 19:35 Cloudy with Light Rain 50 9.8 48 8.7 93 93 NNE 30 48 29.68 1005 7 11.26538 0.12 3.048
7:55 pm 19:55 Cloudy with Heavy Rain 49 9.5 48 8.7 95 95 NNE 24 39 29.74 1007 4 6.43736 0.16 4.064
8:15 pm 20:15 Cloudy with Light Rain 49 9.2 48 8.8 97 97 NNE 23 37 29.71 1006 5 8.0467 0.02 0.508
8:35 pm 20:35 Cloudy 47 8.5 46 8 97 97 NNE 21 33 29.77 1008 5 8.0467 0.04 1.016
8:55 pm 20:55 Cloudy with Rain 46 8 46 7.6 97 97 N 16 26 29.8 1009 5 8.0467 0.09 2.286
9:15 pm 21:15 Cloudy with Light Rain 46 7.6 45 7 96 96 N 24 39 29.77 1008 7 11.26538 0.02 0.508
9:35 pm 21:35 Partly Cloudy with Nearby Thunderstorms 46 7.5 44 6.8 95 95 NE 24 39 29.74 1007 7 11.26538 0.02 0.508
9:55 pm 21:55 Clear 45 7.3 44 6.7 96 96 NNE 15 24 29.77 1008 10 16.0934 0.02 0.508
10:15 pm 22:15 Clear 45 7.1 44 6.5 96 96 NNE 16 26 29.77 1008 10 16.0934 0 0
10:35 pm 22:35 Clear 44 6.9 44 6.5 97 97 NE 15 24 29.77 1008 7 11.26538 0 0
10:55 pm 22:55 Clear 44 6.7 43 6.3 97 97 NE 15 24 29.83 1010 7 11.26538 0 0
11:15 pm 23:15 Partly Cloudy 44 6.5 43 6.3 99 99 NE 10 17 29.83 1010 7 11.26538 0 0
11:35 pm 23:35 Partly Cloudy with Mist and Fog 43 6 43 6 100 100 NE 6 9 29.83 1010 5 8.0467 0 0
11:55 pm 23:55 Partly Cloudy with Mist and Fog 42 5.5 42 5.5 100 100 N 9 15 29.83 1010 5 8.0467 0 0

Powered by AerisWeather